Novato, CA

7:08 AM PDT on March 25, 2017 (GMT -0700)
Gnoss

Weather History for KDVO - November, 2013

Change the Weather History Date:

Friday, November 22, 2013

  Actual Average (KAPC) Record (KAPC)
Temperature  
Mean Temperature 60 °F -  
Max Temperature 73 °F 59 °F 74 °F (2005)
Min Temperature 48 °F 41 °F 26 °F (2003)
Degree Days  
Heating Degree Days 4    
Growing Degree Days 10 (Base 50)    
Moisture  
Dew Point 10 °F    
Average Humidity 14    
Maximum Humidity 30    
Minimum Humidity 8    
Precipitation  
Precipitation 0.00 in - - ()
Sea Level Pressure  
Sea Level Pressure 29.98 in    
Wind  
Wind Speed 10 mph (NNE)    
Max Wind Speed 24 mph    
Max Gust Speed 33 mph    
Visibility 10 miles    
Events      
Averages and records for this station are not official NWS values.
T = Trace of Precipitation, MM = Missing Value Source: NWS Daily Summary

Daily Weather History Graph

Daily Weather History Graph

Search for Another Location

Airport or City:

Trip Planner

Search our weather history database for the weather conditions in past years. The results will help you decide how hot, cold, wet, or windy it might be!

Date:

Astronomy

Nov. 22, 2013 Rise Set
Actual Time 6:59 AM PST 4:53 PM PST
Civil Twilight 6:30 AM PST 5:22 PM PST
Nautical Twilight 5:58 AM PST 5:54 PM PST
Astronomical Twilight 5:26 AM PST 6:25 PM PST
Moon 9:29 PM PST (11/22) 10:46 AM PST (11/22)
Length of Visible Light 10h 51m
Length of Day
9h 54m
Waning Gibbous, 77% of the Moon is Illuminated
Nov 22
Waning Gibbous
Nov 25
Last Quarter
Dec 2
New
Dec 9
First Quarter
Dec 17
Full

Hourly Weather History & Observations

Time (PST) Temp. Dew Point Humidity Pressure Visibility Wind Dir Wind Speed Gust Speed Precip Events Conditions
12:15 AM 55.4 °F 15.8 °F 21% 30.01 in 10.0 mi NE 11.5 mph 21.9 mph N/A   Clear
12:35 AM 55.4 °F 15.8 °F 21% 30.01 in 10.0 mi NE 12.7 mph 18.4 mph N/A   Clear
12:55 AM 55.4 °F 15.8 °F 21% 30.00 in 10.0 mi NNE 12.7 mph 24.2 mph N/A   Clear
1:15 AM 55.4 °F 15.8 °F 21% 30.00 in 10.0 mi NNE 8.1 mph - N/A   Clear
1:35 AM 55.4 °F 14.0 °F 20% 30.00 in 10.0 mi North 6.9 mph - N/A   Clear
1:55 AM 55.4 °F 10.4 °F 17% 30.00 in 10.0 mi NNE 9.2 mph - N/A   Clear
2:15 AM 55.4 °F 12.2 °F 18% 29.99 in 10.0 mi NNE 10.4 mph 17.3 mph N/A   Clear
2:35 AM 55.4 °F 12.2 °F 18% 30.00 in 10.0 mi North 10.4 mph 16.1 mph N/A   Clear
2:55 AM 55.4 °F 12.2 °F 18% 30.00 in 10.0 mi NNE 11.5 mph 20.7 mph N/A   Clear
3:15 AM 57.2 °F 10.4 °F 16% 30.01 in 10.0 mi NE 17.3 mph 24.2 mph N/A   Clear
3:35 AM 55.4 °F 10.4 °F 17% 30.01 in 10.0 mi NE 12.7 mph 23.0 mph N/A   Clear
3:55 AM 55.4 °F 10.4 °F 17% 30.01 in 10.0 mi NE 10.4 mph 18.4 mph N/A   Clear
4:15 AM 55.4 °F 8.6 °F 15% 30.01 in 10.0 mi NE 11.5 mph 23.0 mph N/A   Clear
4:35 AM 55.4 °F 10.4 °F 17% 30.01 in 10.0 mi North 8.1 mph - N/A   Clear
4:55 AM 55.4 °F 6.8 °F 14% 30.02 in 10.0 mi NNW 6.9 mph - N/A   Clear
5:15 AM 55.4 °F 5.0 °F 13% 30.02 in 10.0 mi Calm Calm - N/A   Clear
5:35 AM 55.4 °F 6.8 °F 14% 30.03 in 10.0 mi North 3.5 mph - N/A   Clear
5:55 AM 53.6 °F 8.6 °F 16% 30.03 in 10.0 mi NNE 6.9 mph - N/A   Clear
6:15 AM 50.0 °F 10.4 °F 20% 30.03 in 10.0 mi NNW 6.9 mph - N/A   Clear
6:35 AM 51.8 °F 8.6 °F 18% 30.03 in 10.0 mi NNW 8.1 mph - N/A   Clear
6:55 AM 51.8 °F 6.8 °F 16% 30.03 in 10.0 mi NW 4.6 mph - N/A   Clear
7:15 AM 50.0 °F 12.2 °F 22% 30.03 in 10.0 mi Calm Calm - N/A   Clear
7:35 AM 48.2 °F 17.6 °F 30% 30.03 in 10.0 mi SSW 4.6 mph - N/A   Clear
7:55 AM 51.8 °F 15.8 °F 24% 30.03 in 10.0 mi Calm Calm - N/A   Clear
8:15 AM 55.4 °F 14.0 °F 20% 30.04 in 10.0 mi NNE 3.5 mph - N/A   Clear
8:35 AM 60.8 °F 5.0 °F 11% 30.04 in 10.0 mi NNW 5.8 mph - N/A   Clear
8:55 AM 62.6 °F 1.4 °F 9% 30.04 in 10.0 mi North 8.1 mph - N/A   Clear
9:15 AM 64.4 °F 6.8 °F 10% 30.03 in 10.0 mi NE 13.8 mph 21.9 mph N/A   Clear
9:35 AM 66.2 °F 3.2 °F 8% 30.02 in 10.0 mi NE 13.8 mph - N/A   Clear
9:55 AM 66.2 °F 1.4 °F 8% 30.02 in 10.0 mi WNW 5.8 mph 16.1 mph N/A   Clear
10:15 AM 68.0 °F 3.2 °F 8% 30.02 in 10.0 mi NE 9.2 mph - N/A   Clear
10:35 AM 68.0 °F 5.0 °F 8% 30.01 in 10.0 mi NE 10.4 mph - N/A   Clear
10:55 AM 69.8 °F 6.8 °F 9% 30.01 in 10.0 mi NE 18.4 mph 25.3 mph N/A   Clear
11:15 AM 69.8 °F 6.8 °F 9% 30.00 in 10.0 mi ENE 24.2 mph 33.4 mph N/A   Clear
11:35 AM 71.6 °F 6.8 °F 8% 29.99 in 10.0 mi NE 18.4 mph 24.2 mph N/A   Clear
11:55 AM 71.6 °F 6.8 °F 8% 29.98 in 10.0 mi NNE 13.8 mph 24.2 mph N/A   Clear
12:15 PM 71.6 °F 8.6 °F 9% 29.98 in 10.0 mi NE 21.9 mph 27.6 mph N/A   Clear
12:35 PM 71.6 °F 8.6 °F 9% 29.97 in 10.0 mi NE 17.3 mph 21.9 mph N/A   Clear
12:55 PM 71.6 °F 10.4 °F 9% 29.96 in 10.0 mi NE 15.0 mph - N/A   Clear
1:15 PM 73.4 °F 10.4 °F 9% 29.95 in 10.0 mi NE 19.6 mph - N/A   Clear
1:35 PM 73.4 °F 8.6 °F 8% 29.95 in 10.0 mi NE 10.4 mph - N/A   Clear
1:55 PM 73.4 °F 8.6 °F 8% 29.94 in 10.0 mi ENE 13.8 mph 18.4 mph N/A   Clear
2:15 PM 73.4 °F 8.6 °F 8% 29.93 in 10.0 mi NNE 12.7 mph 19.6 mph N/A   Clear
2:35 PM 73.4 °F 8.6 °F 8% 29.92 in 10.0 mi NNE 11.5 mph - N/A   Clear
2:55 PM 73.4 °F 6.8 °F 8% 29.92 in 10.0 mi NNE 10.4 mph - N/A   Clear
3:15 PM 73.4 °F 6.8 °F 8% 29.93 in 10.0 mi NNE 11.5 mph - N/A   Clear
3:35 PM 73.4 °F 8.6 °F 8% 29.92 in 10.0 mi NNE 11.5 mph - N/A   Clear
3:55 PM 71.6 °F 10.4 °F 9% 29.92 in 10.0 mi North 10.4 mph - N/A   Clear
4:15 PM 69.8 °F 14.0 °F 12% 29.93 in 10.0 mi North 8.1 mph - N/A   Clear
4:35 PM 66.2 °F 12.2 °F 12% 29.93 in 10.0 mi NNW 9.2 mph - N/A   Clear
4:55 PM 64.4 °F 10.4 °F 12% 29.93 in 10.0 mi NNW 9.2 mph - N/A   Clear
5:15 PM 64.4 °F 12.2 °F 13% 29.93 in 10.0 mi NNW 10.4 mph - N/A   Clear
5:35 PM 62.6 °F 14.0 °F 15% 29.93 in 10.0 mi North 10.4 mph - N/A   Clear
5:55 PM 62.6 °F 14.0 °F 15% 29.93 in 10.0 mi NNW 5.8 mph - N/A   Clear
6:15 PM 60.8 °F 14.0 °F 16% 29.93 in 10.0 mi North 8.1 mph - N/A   Clear
6:35 PM 59.0 °F 14.0 °F 17% 29.93 in 10.0 mi NNE 11.5 mph 16.1 mph N/A   Clear
6:55 PM 57.2 °F 17.6 °F 21% 29.93 in 10.0 mi North 9.2 mph - N/A   Clear
7:15 PM 59.0 °F 14.0 °F 17% 29.93 in 10.0 mi NNW 6.9 mph - N/A   Clear
7:35 PM 60.8 °F 14.0 °F 16% 29.94 in 10.0 mi NNW 8.1 mph - N/A   Clear
7:55 PM 60.8 °F 10.4 °F 14% 29.93 in 10.0 mi NNE 9.2 mph - N/A   Clear
8:15 PM 62.6 °F 10.4 °F 13% 29.93 in 10.0 mi North 3.5 mph - N/A   Clear
8:35 PM 62.6 °F 8.6 °F 12% 29.93 in 10.0 mi NE 4.6 mph - N/A   Clear
8:55 PM 64.4 °F 6.8 °F 10% 29.93 in 10.0 mi NNE 6.9 mph - N/A   Clear
9:15 PM 66.2 °F 8.6 °F 11% 29.95 in 10.0 mi North 15.0 mph 18.4 mph N/A   Clear
9:35 PM 62.6 °F 10.4 °F 13% 29.94 in 10.0 mi NE 12.7 mph 19.6 mph N/A   Clear
9:55 PM 64.4 °F 8.6 °F 11% 29.95 in 10.0 mi NE 9.2 mph 20.7 mph N/A   Clear
10:15 PM 62.6 °F 10.4 °F 13% 29.95 in 10.0 mi NE 12.7 mph - N/A   Clear
10:35 PM 57.2 °F 14.0 °F 18% 29.95 in 10.0 mi ENE 10.4 mph - N/A   Clear
10:55 PM 62.6 °F 10.4 °F 13% 29.96 in 10.0 mi ENE 10.4 mph 19.6 mph N/A   Clear
11:15 PM 59.0 °F 12.2 °F 16% 29.96 in 10.0 mi SW 3.5 mph - N/A   Clear
11:35 PM 57.2 °F 14.0 °F 18% 29.97 in 10.0 mi Calm Calm - N/A   Clear
11:55 PM 57.2 °F 14.0 °F 18% 29.97 in 10.0 mi SE 9.2 mph - N/A   Clear